Dewpoint
22 17 17 14 17 19 19 19 20 20 20 17 16 15 14 14 16 17 18 19 22 20 17 16 17 16 16 16 15 15 15 15 14 14 14 14 14 14 14 13 14 14 13 16 17 16 15 15 15 16 14 13 13 14 13 14 15 15 14 15 13 13 10 10 11 8 9 10 12 12 5 4 2 7 3 13 15 15 13 15 15 16 11 14 16 16
19 15 14 16 18 19 19 19 19 14 16 16 14 13 13 15 14 16 18 21 20 18 15 17 16 16 15 15 16 16 16 15 15 15 15 14 15 14 15 15 16 15 16 16 16 16 15 16 16 16 16 18 12 13 12 14 13 14 14 12 11 12 11 9 8 10 11 10 13 12 13 6 5 6 12 12 12 12 13 16 16 14 12 12 14 15
12 12 14 13 17 20 17 18 19 16 14 13 13 12 7 10 13 13 16 19 19 18 16 17 15 15 15 15 16 16 15 16 16 15 15 15 15 15 15 15 16 15 16 16 15 16 16 16 16 16 16 14 14 13 13 13 13 13 14 13 13 13 13 12 10 12 10 10 13 9 8 6 6 4 4 4 9 9 13 13 16 14 12 11 10 13
4 10 10 15 20 15 14 14 12 11 12 7 8 7 0 6 6 1 11 19 19 16 16 17 15 13 13 14 16 17 16 16 16 16 15 16 15 15 15 16 16 16 17 17 17 17 16 16 16 16 16 15 15 14 13 12 13 13 16 14 14 14 14 14 14 17 12 10 8 12 11 10 5 4 13 13 11 12 9 9 12 13 12 11 9 9
-1 7 17 16 18 16 10 12 10 8 3 7 9 7 7 6 8 5 6 15 20 20 17 14 8 -0 1 8 13 17 19 19 18 18 18 17 17 16 17 16 17 16 17 17 17 17 17 16 16 16 17 16 15 15 14 14 13 12 15 17 17 15 14 15 17 16 17 16 15 14 14 14 11 8 8 6 5 6 9 11 9 10 12 10 9 8
3 10 17 11 12 12 9 10 11 9 2 8 7 6 4 7 8 9 13 12 8 7 13 5 -3 -7 -4 2 4 10 15 17 19 19 18 19 18 19 17 17 18 18 18 18 17 18 19 18 18 17 17 16 16 15 15 14 14 14 15 16 17 17 17 16 16 16 15 17 15 12 10 9 7 6 5 5 5 8 5 5 6 7 8 8 8 7
5 10 13 10 7 5 7 7 9 8 -0 -5 -15 10 10 10 10 13 10 2 2 1 8 5 -4 -3 -0 2 2 7 14 15 16 18 18 19 19 19 20 19 19 19 19 19 19 18 18 18 18 18 17 17 16 15 16 15 15 15 15 16 17 18 18 17 17 17 17 14 13 13 12 11 11 11 12 11 10 9 7 6 3 6 5 7 4 4
12 7 4 5 4 -2 -5 -2 8 6 2 -11 5 13 12 11 11 12 12 5 7 14 13 9 2 -0 4 5 9 14 13 11 8 10 14 16 18 19 19 20 20 20 20 20 20 19 19 19 18 18 19 18 17 18 17 17 16 16 16 18 18 18 19 19 19 18 17 15 14 13 12 13 11 10 11 12 12 8 7 5 2 3 4 5 3 1
8 13 9 2 2 1 -3 -1 10 4 -3 -5 9 14 14 12 12 15 14 14 13 7 5 5 6 -3 -3 5 1 9 2 2 3 4 6 9 15 17 19 20 21 21 21 20 20 20 20 19 19 19 19 18 18 18 18 18 17 17 17 19 19 18 18 18 19 19 17 17 15 14 13 12 13 13 13 13 15 12 10 6 4 2 2 2 2 1
13 14 15 5 0 0 5 7 14 7 2 2 15 13 13 13 13 15 12 10 6 1 -5 0 1 -6 -2 0 -3 -2 8 8 9 7 8 11 15 18 19 20 20 21 22 22 21 20 20 20 19 19 19 19 19 19 19 21 19 18 18 19 20 19 18 18 18 19 19 17 17 15 15 14 13 13 13 13 12 10 8 6 4 3 2 0 -2 -1
17 27 24 15 7 7 6 11 15 8 5 13 12 6 -4 -5 1 5 1 2 0 -13 -3 1 1 -3 -6 -6 -10 -10 -15 5 8 5 4 9 13 14 18 19 20 20 21 21 22 21 21 21 20 19 19 20 20 21 20 20 19 19 19 20 19 19 19 19 19 18 17 17 15 14 14 14 14 14 14 13 13 12 11 8 6 5 4 2 -1 -4
8 10 19 18 25 14 13 10 13 14 12 9 9 3 -9 -8 -8 -6 -1 -5 -19 -17 -9 -3 -2 -4 -14 -7 -9 -3 4 8 8 2 -1 2 6 12 16 19 20 20 21 21 21 21 21 20 21 21 21 22 22 23 23 23 23 23 22 21 20 20 21 20 20 19 17 16 15 15 14 14 14 14 14 13 13 13 12 12 11 9 6 4 1 -1
-0 7 14 9 27 13 8 -0 4 3 3 -3 -5 -6 -24 -29 -19 -33 -15 -33 -27 -18 -2 -4 -4 -14 -6 -7 -8 -7 -5 1 9 5 3 6 7 12 15 18 19 19 20 20 20 19 19 19 21 21 21 22 23 23 23 24 24 23 23 23 21 21 22 21 21 18 18 17 16 15 15 15 15 14 14 13 14 14 13 12 11 11 11 7 2 -1
-1 1 1 8 1 15 -3 -17 -18 -11 -11 -7 -13 -9 -19 -26 -27 -37 -16 -22 -21 -14 -10 -6 -5 -10 -10 -9 -6 -6 -5 -1 3 9 11 10 11 14 17 18 19 20 20 19 19 18 18 18 19 20 21 22 22 22 22 22 22 21 21 21 20 19 20 20 20 19 19 18 18 17 16 16 15 15 15 14 14 14 14 13 12 12 11 9 8 2
-18 -16 -17 2 -6 8 3 -16 -14 -17 3 -1 -4 -18 -21 -13 -32 -30 -28 -34 -19 -9 -11 -5 -11 -4 -14 6 1 -3 -1 0 6 8 9 12 15 17 18 19 19 18 18 18 18 18 18 19 19 20 21 21 21 21 20 19 18 17 16 16 14 13 13 13 13 13 14 16 18 19 18 17 17 16 16 15 16 16 15 14 13 12 11 10 9 6
-7 -12 -20 7 -1 12 10 14 1 -4 -4 6 3 -10 -14 -21 -4 -26 -13 -19 -22 -8 -5 -7 -4 1 -3 -1 2 3 2 4 8 10 19 17 18 19 17 17 17 16 17 17 17 18 19 19 20 20 20 20 19 18 17 15 15 13 11 10 9 7 7 6 7 6 7 9 10 13 15 17 19 19 18 18 17 17 16 16 16 14 14 14 9 0
-15 -10 7 16 15 13 13 18 13 -6 -10 -9 -14 -18 -19 -5 -2 -7 -5 -7 -8 -9 -4 -14 -4 -3 -3 -11 -7 4 -5 -4 6 10 13 13 15 14 13 14 13 14 14 15 17 18 18 19 19 19 19 17 16 14 13 13 11 9 7 5 4 4 5 5 6 6 6 6 6 7 8 9 10 12 15 17 18 18 18 17 16 15 15 11 2 -1
-16 -19 -12 13 9 17 18 18 15 10 2 -4 -12 -11 5 4 2 -2 -13 -14 -19 -12 -9 -7 -4 -2 -12 -10 5 5 -4 -5 3 3 3 4 6 9 9 10 11 12 14 15 17 18 18 19 19 18 16 15 14 12 11 10 9 5 4 3 3 5 5 5 5 5 4 4 5 4 4 4 5 7 8 10 14 18 18 17 17 15 13 10 1 1
4 -14 -6 12 9 14 15 16 12 9 12 -5 -6 -4 -8 -14 -13 -4 -11 -20 -20 -19 -12 -10 -9 -5 -4 0 2 0 -4 -1 -1 -2 -2 1 4 7 7 10 12 13 15 16 16 17 17 17 16 15 14 13 11 10 9 8 5 3 3 4 5 5 5 5 4 4 4 3 3 2 2 2 2 4 6 8 11 13 15 18 17 17 12 4 4 6
-0 -21 -6 -2 10 11 11 7 2 6 7 7 5 1 7 -5 -9 -11 -6 -7 -11 -12 -15 -6 -15 -9 -2 3 5 1 2 4 1 -2 2 4 4 5 9 10 11 14 15 15 15 16 17 16 14 13 11 10 9 8 7 5 4 3 3 5 6 6 5 5 4 3 3 3 2 1 1 1 3 4 6 5 5 9 13 16 16 13 7 7 9 9
3 -12 -19 -10 -3 0 2 9 3 6 1 2 1 -0 1 -7 0 -0 -9 -6 -7 -17 -17 -16 -10 -4 -5 4 2 4 5 6 5 6 1 2 7 8 10 11 12 14 15 15 15 15 15 14 13 12 10 9 8 7 6 4 3 3 3 5 6 6 5 5 4 4 3 3 2 2 1 1 4 2 3 5 5 8 11 8 8 7 9 10 10 10
-4 -6 -10 -1 -5 2 -0 3 6 6 6 4 6 3 7 -4 -10 -16 -7 -8 -12 -12 -8 -21 -11 -6 1 4 4 1 9 9 9 7 4 6 8 9 11 12 13 15 15 15 15 15 14 13 11 11 9 8 7 6 4 4 3 3 3 5 7 6 6 5 5 4 4 2 2 2 2 1 5 3 6 4 5 6 6 7 8 8 8 8 8 8
-0 -2 -2 -5 -5 -10 -4 -4 15 7 7 6 3 4 5 -1 -2 -11 -16 -5 -11 -4 -13 -13 -14 -7 3 9 5 7 7 6 9 7 5 7 6 9 11 14 15 14 13 14 15 14 12 11 10 9 8 7 6 5 4 4 3 4 4 4 7 6 6 6 5 5 4 3 3 3 3 3 3 5 5 6 6 6 7 7 7 8 8 8 9 9
19 -4 -8 -3 -2 -11 -8 -0 11 9 10 7 8 3 2 -2 3 3 -4 -5 -5 -10 -9 -9 -10 -3 -1 7 4 2 4 2 2 7 6 8 9 10 10 12 13 13 14 14 15 13 11 10 9 8 7 6 6 5 4 4 4 4 4 4 6 7 6 6 6 6 5 4 4 5 5 5 5 6 7 7 7 7 7 7 8 8 8 9 10 10
-5 4 -5 -13 -11 -11 -5 -1 1 3 10 8 2 5 2 -2 -5 -8 -6 -11 -7 -3 -2 -8 -9 -8 2 4 8 10 9 6 6 7 9 8 8 9 10 11 12 13 14 15 14 12 10 9 8 7 6 6 7 5 4 3 4 4 4 4 5 7 7 6 7 7 6 5 5 6 5 6 6 7 7 8 8 8 8 8 9 9 8 9 10 9
1 4 -9 -18 -21 -22 -19 -18 -9 -9 -1 7 9 9 3 1 -0 -4 -6 -6 -6 -1 -2 -9 -5 2 -0 4 5 6 7 6 8 8 8 8 7 8 11 11 12 13 14 15 13 11 10 8 7 7 6 7 7 5 4 3 3 4 4 4 4 6 7 7 8 7 6 5 5 5 5 6 6 6 6 7 8 9 10 11 10 10 10 9 7 5
-3 5 -4 -4 -6 -12 -7 -7 -9 2 -8 -8 -6 6 5 -0 1 -3 -2 -5 -3 -4 -1 1 1 0 1 1 3 4 5 5 4 4 5 7 10 11 10 11 12 14 15 14 12 10 9 7 6 6 6 7 7 6 4 3 3 4 3 3 4 6 8 8 6 7 5 4 4 3 4 4 4 4 4 5 6 7 7 7 7 6 6 5 5 4
-5 -2 4 1 -2 -6 -10 -10 -1 2 -7 -8 -6 -2 5 3 3 2 1 -1 0 -4 -5 2 3 2 0 0 1 2 3 4 4 4 4 8 11 10 9 12 17 15 15 13 10 10 9 7 6 6 6 7 7 5 3 1 3 2 3 3 4 4 6 6 6 7 4 3 2 1 2 2 2 2 2 2 2 2 3 2 2 1 2 3 2 1
-1 -5 -3 -2 1 3 2 2 2 2 1 -1 -1 -1 -0 5 3 2 4 5 0 -2 -5 -4 2 1 0 -0 -0 -0 1 2 2 3 6 8 10 9 11 15 17 15 14 11 9 8 8 7 6 6 6 7 7 4 1 1 1 2 3 4 3 5 8 7 6 5 4 2 1 1 1 0 0 0 -2 -1 -2 -2 -2 -2 -3 -2 -3 -3 -2 0
2 3 -4 -4 0 3 4 5 5 4 4 4 5 3 3 1 4 5 4 4 4 3 1 -1 -1 -1 -0 -0 -0 2 5 6 6 8 9 9 8 10 12 14 15 15 13 11 10 8 8 7 6 6 7 7 5 2 0 1 1 2 3 4 5 4 6 6 6 4 2 1 -1 -2 -2 -3 -4 -4 -4 -4 -4 -4 -5 -4 -4 -4 -4 -5 -5 -5
3 1 10 2 -1 5 2 4 3 5 4 3 3 4 5 4 2 4 5 4 5 4 4 4 3 5 4 4 5 6 7 8 9 8 8 8 9 12 13 14 14 15 14 11 10 9 8 7 6 7 7 7 3 1 1 1 2 3 3 4 6 6 5 4 3 2 -1 -2 -3 -5 -5 -6 -6 -6 -5 -5 -6 -6 -6 -5 -6 -7 -7 -7 -8 -8
-0 0 -6 -7 -4 3 2 5 6 6 6 5 5 5 4 5 4 5 4 4 4 5 5 1 3 5 5 6 7 8 8 7 7 7 6 5 8 12 13 14 14 14 13 11 10 8 7 7 6 6 6 6 3 1 1 2 2 3 2 4 5 2 3 1 -0 -2 -4 -6 -7 -7 -6 -5 -5 -6 -6 -6 -6 -6 -7 -8 -8 -8 -7 -8 -7 -7
2 -2 -0 -8 -2 3 1 3 5 6 5 4 5 4 4 4 5 5 6 6 5 5 3 1 4 5 5 5 3 3 6 7 7 6 5 6 8 12 13 14 14 14 12 10 9 8 7 7 7 6 5 5 2 0 1 2 2 3 3 4 3 1 -1 -2 -4 -6 -8 -8 -8 -7 -6 -6 -6 -6 -7 -7 -8 -8 -8 -9 -8 -9 -9 -8 -9 -8
-1 -2 -5 -4 -3 -3 -3 3 6 4 -1 -2 -1 2 2 -1 4 4 4 5 6 6 6 6 5 4 2 4 3 2 3 4 4 4 5 6 9 12 13 14 13 12 10 9 8 8 7 8 6 4 4 3 1 1 2 3 3 3 3 4 1 -3 -4 -5 -6 -8 -8 -8 -7 -7 -7 -7 -7 -7 -8 -7 -8 -9 -9 -9 -9 -10 -10 -9 -8 -8
4 -1 -2 -10 -4 1 -0 5 1 -9 -1 4 4 4 3 1 4 3 3 3 4 6 7 6 5 4 4 3 3 3 3 3 6 7 11 12 12 13 14 14 12 10 8 7 7 7 7 6 2 1 3 2 1 2 2 2 2 1 1 -1 -3 -6 -6 -9 -9 -10 -7 -7 -7 -7 -7 -7 -8 -8 -8 -8 -9 -9 -9 -9 -9 -9 -8 -9 -7 -7
4 1 -3 2 -8 -5 -1 -10 -12 -3 -1 4 4 4 5 1 2 1 2 2 2 3 6 6 5 4 4 4 3 4 3 7 13 14 13 14 14 14 13 12 11 8 6 6 7 7 7 4 1 0 2 3 2 2 2 2 -1 -3 -4 -6 -6 -8 -10 -9 -8 -8 -8 -7 -8 -7 -7 -7 -8 -8 -9 -8 -9 -10 -8 -9 -10 -9 -9 -9 -8 -10
9 -2 0 5 -2 -1 -9 -13 1 2 3 1 -3 0 1 -0 -0 2 -3 3 3 2 2 3 3 4 3 3 3 10 14 14 12 11 14 15 14 13 12 11 10 8 6 7 7 7 6 2 0 0 3 1 -0 1 2 1 -2 -5 -7 -8 -10 -9 -8 -8 -9 -9 -8 -7 -7 -7 -8 -8 -9 -8 -9 -9 -9 -10 -9 -8 -9 -9 -9 -10 -8 -8
10 12 8 5 4 -2 -1 3 2 -5 -4 3 2 3 5 2 2 3 2 6 5 4 3 2 1 1 2 2 9 13 12 8 7 8 12 14 12 9 8 7 7 7 6 7 6 5 3 1 0 1 2 -1 -1 1 1 -0 -4 -8 -8 -8 -8 -9 -7 -9 -9 -8 -8 -8 -8 -8 -9 -8 -9 -9 -9 -10 -10 -10 -9 -9 -11 -10 -10 -9 -9 -8
10 11 8 8 6 -2 -3 -3 -6 -6 0 -2 -3 1 5 8 3 5 6 6 6 6 6 3 2 3 4 4 9 11 7 3 7 10 12 11 8 7 6 6 6 5 6 6 3 2 1 1 1 2 0 -2 -1 -0 -2 -4 -5 -7 -8 -7 -7 -8 -10 -9 -9 -9 -8 -8 -9 -9 -9 -9 -9 -9 -10 -10 -10 -11 -11 -10 -9 -9 -11 -10 -12 -11
12 8 7 8 5 2 -7 -7 2 -3 4 3 1 5 6 8 9 8 2 2 6 6 7 5 5 5 6 5 10 10 8 5 6 10 12 10 8 7 6 5 4 5 6 4 1 1 1 1 1 -3 -3 -3 -2 -2 -4 -5 -7 -6 -7 -7 -9 -9 -9 -9 -8 -9 -9 -9 -10 -10 -8 -9 -9 -9 -11 -10 -11 -12 -13 -12 -12 -11 -10 -11 -11 -11
14 10 9 12 10 8 9 6 -1 8 10 10 7 4 8 7 5 1 -0 5 11 5 6 6 6 6 6 7 12 9 11 10 10 11 9 8 7 6 6 6 5 6 4 2 1 3 1 -0 -1 -2 -3 -3 -1 -2 -4 -5 -7 -7 -7 -8 -9 -10 -9 -9 -9 -8 -9 -9 -10 -10 -9 -9 -11 -11 -12 -13 -14 -13 -13 -14 -12 -11 -12 -12 -12 -13
6 2 4 6 6 8 9 6 8 8 11 11 11 7 8 4 -1 3 10 12 7 4 5 7 6 6 7 8 11 10 9 12 10 8 7 7 7 7 6 4 4 3 2 2 3 2 -1 -3 -3 -4 -4 -4 -3 -4 -5 -6 -7 -7 -8 -8 -10 -11 -11 -10 -9 -10 -10 -10 -10 -10 -10 -11 -12 -13 -13 -14 -14 -15 -15 -14 -14 -14 -15 -15 -15 -15
8 9 7 5 8 7 6 3 4 3 6 11 8 7 6 5 11 13 11 6 5 4 5 5 6 7 9 9 11 11 12 12 8 7 7 7 7 5 4 4 4 2 -0 0 2 2 -1 -4 -4 -4 -3 -4 -5 -5 -5 -7 -8 -9 -9 -10 -10 -10 -10 -10 -10 -10 -10 -10 -11 -12 -13 -13 -15 -14 -15 -16 -16 -16 -17 -17 -17 -17 -17 -18 -18 -18
12 3 -2 1 8 2 3 2 5 10 10 9 6 5 7 7 12 15 6 5 7 6 6 6 6 8 10 10 10 12 13 14 12 8 7 7 7 5 4 5 4 2 -0 -1 -0 1 -1 -4 -4 -4 -4 -5 -5 -6 -5 -8 -9 -10 -10 -10 -9 -11 -11 -11 -10 -11 -12 -13 -13 -14 -15 -15 -17 -17 -17 -17 -17 -18 -18 -18 -18 -18 -17 -18 -18 -18
10 9 8 4 5 4 2 7 10 11 10 10 7 5 7 9 10 12 6 6 6 8 9 9 9 10 11 12 12 13 13 15 15 12 9 8 7 6 4 5 5 2 0 -1 -2 -1 -1 -3 -5 -4 -5 -5 -5 -7 -9 -10 -9 -11 -12 -12 -11 -11 -11 -12 -13 -14 -15 -16 -16 -16 -17 -17 -17 -18 -19 -17 -19 -19 -17 -17 -19 -17 -17 -19 -18 -18
10 8 5 2 7 6 6 6 9 7 10 9 10 10 8 8 8 10 8 8 8 8 12 12 12 13 14 14 14 14 15 14 14 12 11 9 8 6 5 4 3 2 0 -1 -3 -1 -1 -4 -6 -7 -6 -6 -7 -8 -9 -10 -11 -12 -11 -13 -12 -12 -12 -14 -16 -17 -17 -18 -18 -17 -18 -19 -18 -18 -19 -19 -19 -19 -18 -18 -18 -18 -18 -19 -19 -19
7 7 6 5 5 3 5 5 5 5 5 5 6 7 9 9 9 9 9 9 9 10 13 15 14 14 15 16 16 16 15 14 13 12 11 10 8 6 5 4 2 0 -1 -2 -2 -2 -3 -5 -5 -7 -8 -8 -9 -10 -11 -11 -12 -11 -11 -12 -12 -13 -15 -16 -17 -17 -17 -17 -17 -18 -19 -19 -17 -16 -16 -19 -19 -18 -19 -19 -19 -19 -19 -19 -19 -20
11 6 4 4 4 3 4 5 5 6 6 7 8 7 7 8 7 8 10 10 11 13 15 16 17 16 17 16 16 16 15 13 13 11 10 9 8 7 5 3 2 0 -1 -2 -3 -3 -4 -5 -5 -7 -8 -8 -9 -11 -11 -12 -12 -12 -13 -14 -13 -16 -18 -18 -18 -17 -17 -17 -17 -17 -17 -18 -16 -15 -16 -16 -18 -18 -18 -19 -20 -20 -19 -19 -19 -20
10 10 11 7 5 6 7 8 9 10 11 11 11 11 9 8 8 9 9 11 14 15 16 16 17 16 16 15 15 15 14 12 12 12 10 9 7 6 4 4 2 0 -2 -4 -4 -4 -4 -5 -7 -8 -9 -9 -10 -12 -13 -13 -13 -13 -13 -12 -15 -19 -19 -17 -18 -17 -18 -18 -19 -18 -17 -16 -17 -17 -17 -17 -17 -18 -18 -18 -18 -18 -18 -18 -18 -18
10 11 10 11 11 11 10 10 11 11 11 11 11 11 11 10 10 10 12 15 16 16 16 15 13 11 14 14 13 13 13 12 11 11 10 8 7 5 4 2 0 -1 -3 -3 -4 -5 -5 -7 -7 -8 -10 -10 -11 -12 -13 -14 -13 -14 -13 -15 -17 -19 -19 -18 -18 -20 -19 -19 -19 -18 -17 -17 -17 -19 -17 -18 -18 -18 -18 -16 -12 -13 -17 -16 -10 -8
10 10 10 12 11 12 11 12 12 12 12 11 12 12 11 10 11 11 12 13 15 16 16 15 14 11 11 11 11 12 12 12 10 9 9 6 6 5 4 2 -1 -3 -3 -5 -5 -6 -7 -7 -8 -10 -11 -10 -12 -13 -13 -14 -14 -15 -15 -15 -16 -20 -19 -20 -19 -19 -18 -18 -18 -17 -16 -16 -16 -17 -18 -18 -19 -19 -19 -19 -18 -1 4 -2 -4 -5